EW1268 Weather Reports


Display with metric or nautical units.
time (UTC)temp
F
wind
direction
speed
MPH
gust
MPH
rain 1hr
in
rain 24hr
in
rain mn
in
humidity
%
barometer
mb
20260503032510 62 319 1.0 2.0 0.00 0.00 0.00 83 1020.3
20260503032011 62 93 0.0 2.0 0.00 0.00 0.00 81 1020.2
20260503031534 63 51 0.0 1.0 0.00 0.00 0.00 81 1020.3
20260503031010 63 153 0.0 2.0 0.00 0.00 0.00 81 1020.3
20260503030505 63 93 0.0 2.0 0.00 0.00 0.00 81 1020.1
20260503030024 64 51 0.0 1.0 0.00 0.00 0.00 81 1020.0
20260503025508 64 67 0.0 1.0 0.00 0.00 0.00 80 1020.1
20260503025009 64 76 0.0 2.0 0.00 0.00 0.00 80 1020.1
20260503024524 64 93 0.0 2.0 0.00 0.00 0.00 79 1020.0
20260503024009 65 51 0.0 1.0 0.00 0.00 0.00 78 1020.0
20260503023512 65 51 0.0 1.0 0.00 0.01 0.00 77 1019.9
20260503023042 65 76 0.0 1.0 0.00 0.01 0.00 77 1020.0
20260503022506 66 93 0.0 1.0 0.00 0.01 0.00 75 1020.0
20260503022011 66 93 0.0 1.0 0.00 0.01 0.00 74 1019.8
20260503021520 67 93 0.0 1.0 0.00 0.01 0.00 75 1019.8
20260503021008 67 93 0.0 2.0 0.00 0.01 0.00 74 1019.7
20260503020508 67 67 0.0 2.0 0.00 0.01 0.00 74 1019.7
20260503020024 67 67 0.0 2.0 0.00 0.01 0.00 74 1019.6
20260503015510 68 93 0.0 2.0 0.00 0.01 0.00 73 1019.6
20260503015010 68 80 0.0 2.0 0.00 0.02 0.00 72 1019.6
20260503014514 69 61 0.0 1.0 0.00 0.02 0.00 71 1019.6
20260503014006 69 51 0.0 1.0 0.00 0.03 0.00 68 1019.5
20260503013510 70 93 0.0 3.0 0.00 0.03 0.00 67 1019.4
20260503013022 70 51 0.0 3.0 0.00 0.04 0.00 67 1019.4
20260503012512 70 93 0.0 2.0 0.00 0.05 0.00 65 1019.3
20260503012009 71 93 0.0 3.0 0.00 0.05 0.00 64 1019.3
20260503011525 71 76 0.0 3.0 0.00 0.05 0.00 63 1019.1
20260503011010 71 26 0.0 2.0 0.00 0.06 0.00 62 1019.1
20260503010509 71 76 0.0 4.0 0.00 0.07 0.00 63 1019.0
20260503010029 72 9 1.0 4.0 0.00 0.31 0.00 58 1019.1
20260503005511 73 9 0.0 5.0 0.00 0.65 0.00 58 1019.1
20260503005012 73 291 1.0 5.0 0.00 0.68 0.00 57 1019.0
20260503004526 74 51 1.0 4.0 0.00 0.69 0.00 57 1018.9
20260503004010 74 309 1.0 6.0 0.00 0.69 0.00 58 1018.7
20260503003508 74 338 1.0 6.0 0.00 0.69 0.00 55 1018.8
20260503003028 75 334 1.0 8.0 0.00 0.70 0.00 55 1018.6
20260503002509 75 34 1.0 8.0 0.00 0.70 0.00 54 1018.6
20260503002009 75 238 2.0 8.0 0.00 0.71 0.00 53 1018.6
20260503001522 77 63 1.0 8.0 0.00 0.72 0.00 53 1018.5
20260503001011 77 78 2.0 8.0 0.00 0.73 0.00 54 1018.4
20260503000509 76 76 1.0 9.0 0.00 0.75 0.00 54 1018.4
20260503000027 77 67 2.0 10.0 0.00 0.76 0.00 54 1018.4
20260502235511 76 76 2.0 10.0 0.00 0.77 0.00 53 1018.4
20260502235011 76 330 2.0 8.0 0.00 0.79 0.00 52 1018.4
20260502234515 78 291 1.0 5.0 0.00 0.81 0.00 54 1018.4
20260502234008 78 330 2.0 8.0 0.00 0.83 0.00 54 1018.4
20260502233509 77 51 2.0 10.0 0.00 0.85 0.00 52 1018.3
20260502233022 77 107 2.0 10.0 0.00 0.86 0.00 52 1018.4
20260502232511 78 9 2.0 9.0 0.00 0.86 0.00 54 1018.3
20260502232008 79 111 3.0 9.0 0.00 0.86 0.00 51 1018.3
20260502231526 79 98 2.0 7.0 0.00 0.87 0.00 53 1018.3
20260502231010 79 309 3.0 7.0 0.00 0.87 0.00 51 1018.3
20260502230511 79 43 3.0 7.0 0.00 0.88 0.00 54 1018.3
20260502230022 78 137 2.0 9.0 0.00 0.89 0.00 53 1018.3
20260502225506 78 9 4.0 10.0 0.00 0.93 0.00 52 1018.3
20260502225007 78 137 4.0 10.0 0.00 0.98 0.00 51 1018.3
20260502224527 79 9 2.0 10.0 0.00 0.99 0.00 52 1018.3
20260502224008 79 72 3.0 9.0 0.00 0.99 0.00 52 1018.2
20260502223508 79 86 3.0 9.0 0.00 0.99 0.00 53 1018.2
20260502223027 79 209 1.0 11.0 0.00 0.99 0.00 54 1018.2
20260502222510 79 146 2.0 11.0 0.00 0.99 0.00 53 1018.3
20260502222008 78 101 4.0 14.0 0.00 0.99 0.00 52 1018.4
20260502221523 79 63 5.0 14.0 0.00 0.99 0.00 54 1018.3
20260502221009 79 287 3.0 13.0 0.00 0.99 0.00 50 1018.2
20260502220511 79 17 3.0 13.0 0.00 0.99 0.00 56 1018.4
20260502220030 79 336 7.0 13.0 0.00 0.99 0.00 56 1018.4
20260502215510 79 26 2.0 10.0 0.00 0.99 0.00 58 1018.2
20260502215011 79 51 3.0 15.0 0.00 0.99 0.00 57 1018.2
20260502214529 78 148 2.0 15.0 0.00 0.99 0.00 58 1018.2
20260502214007 78 344 6.0 13.0 0.00 0.99 0.00 53 1018.1
20260502213507 79 80 3.0 11.0 0.00 0.99 0.00 55 1018.3
20260502213030 78 51 3.0 13.0 0.00 1.00 0.00 58 1018.3
20260502212508 78 21 3.0 13.0 0.00 1.00 0.00 57 1018.3
20260502212010 78 9 3.0 14.0 0.00 1.00 0.00 58 1018.4
20260502211526 77 71 5.0 14.0 0.00 1.01 0.00 55 1018.5
20260502211011 78 338 3.0 10.0 0.00 1.03 0.00 55 1018.5
20260502210510 78 110 5.0 10.0 0.00 1.04 0.00 60 1018.7
20260502210020 78 254 4.0 9.0 0.00 1.04 0.00 61 1018.8
20260502205512 78 82 3.0 10.0 0.00 1.05 0.00 61 1018.8
20260502205010 77 238 3.0 10.0 0.00 1.05 0.00 59 1018.9
20260502204528 77 309 2.0 15.0 0.00 1.05 0.00 60 1018.8
20260502204009 77 25 5.0 15.0 0.00 1.05 0.00 60 1019.0
20260502203511 77 325 6.0 13.0 0.00 1.07 0.00 59 1018.8
20260502203027 77 301 2.0 10.0 0.00 1.08 0.00 59 1019.1
20260502202507 77 107 2.0 11.0 0.00 1.09 0.00 60 1019.2
20260502202008 77 344 4.0 11.0 0.00 1.10 0.00 61 1019.1
20260502201524 77 24 2.0 9.0 0.00 1.15 0.00 61 1019.2
20260502201014 76 61 3.0 8.0 0.00 1.17 0.00 62 1019.2
20260502200510 76 16 1.0 11.0 0.00 1.17 0.00 62 1019.2
20260502200038 76 40 4.0 15.0 0.00 1.19 0.00 59 1019.4
20260502195514 76 340 5.0 15.0 0.00 1.20 0.00 61 1019.5
20260502195011 76 117 2.0 10.0 0.00 1.22 0.00 62 1019.6
20260502194531 76 279 4.0 11.0 0.00 1.22 0.00 60 1019.7
20260502194009 76 347 2.0 11.0 0.00 1.22 0.00 64 1019.7
20260502193509 76 341 2.0 11.0 0.00 1.23 0.00 60 1019.8
20260502193026 76 93 5.0 12.0 0.00 1.23 0.00 62 1019.9
20260502192510 76 341 2.0 12.0 0.00 1.24 0.00 66 1019.8
20260502192015 75 331 6.0 12.0 0.00 1.26 0.00 65 1019.8
20260502191525 75 161 3.0 11.0 0.00 1.29 0.00 65 1019.8
20260502191009 75 291 5.0 11.0 0.00 1.29 0.00 66 1020.1
20260502190509 75 312 4.0 10.0 0.00 1.30 0.00 64 1020.1
20260502190022 74 98 4.0 15.0 0.00 1.30 0.00 61 1019.9
20260502185511 74 330 4.0 15.0 0.00 1.34 0.00 62 1020.2
20260502185011 74 323 4.0 12.0 0.00 1.40 0.00 61 1020.2
20260502184531 74 34 4.0 12.0 0.00 1.42 0.00 65 1020.2
20260502184003 74 21 5.0 11.0 0.00 1.42 0.00 64 1020.1
20260502183506 75 148 4.0 11.0 0.00 1.42 0.00 65 1020.1
20260502183020 75 85 2.0 9.0 0.00 1.42 0.00 65 1020.2
20260502182506 75 97 4.0 9.0 0.00 1.43 0.00 62 1020.3
20260502182011 74 58 4.0 10.0 0.00 1.44 0.00 62 1020.4
20260502181524 74 41 3.0 12.0 0.00 1.47 0.00 65 1020.6
20260502181008 74 97 3.0 12.0 0.00 1.69 0.00 67 1020.7
20260502180504 73 323 3.0 15.0 0.00 1.75 0.00 67 1020.6
20260502170514 71 119 4.0 10.0 0.00 2.22 0.00 69 1020.9
20260502164003 70 319 3.0 13.0 0.00 2.32 0.00 73 1020.9
20260502163506 69 161 4.0 12.0 0.00 2.32 0.00 76 1020.9
20260502163024 69 9 4.0 13.0 0.00 2.38 0.00 73 1020.8
20260502162510 69 116 4.0 13.0 0.00 2.38 0.00 72 1020.9
20260502162011 69 32 4.0 10.0 0.00 2.93 0.00 77 1020.8
20260502161525 68 309 4.0 11.0 0.00 3.04 0.00 74 1020.9
20260502161011 68 337 3.0 13.0 0.00 3.04 0.00 74 1020.8
20260502160504 68 298 4.0 14.0 0.00 3.04 0.00 73 1020.8
20260502152010 65 90 3.0 9.0 0.00 3.05 0.00 81 1020.6
20260502151537 64 332 2.0 9.0 0.00 3.06 0.00 83 1020.6
20260502151006 64 153 3.0 17.0 0.00 3.06 0.00 82 1020.7
20260502150514 63 9 4.0 17.0 0.00 3.06 0.00 82 1020.8
20260502130509 54 301 2.0 9.0 0.00 3.09 0.00 93 1019.6
20260502123509 53 46 2.0 5.0 0.00 3.10 0.00 93 1019.1
20260502123027 53 34 1.0 5.0 0.00 3.10 0.00 93 1018.9
20260502122510 53 291 2.0 5.0 0.00 3.10 0.00 93 1018.9
20260502122010 53 338 1.0 8.0 0.00 3.11 0.00 93 1018.9
20260502121526 52 44 2.0 8.0 0.00 3.11 0.00 93 1018.8
20260502121011 52 328 2.0 6.0 0.00 3.11 0.00 93 1018.8
20260502120507 52 329 1.0 6.0 0.00 3.11 0.00 93 1018.8
20260502115507 52 34 2.0 8.0 0.00 3.11 0.00 93 1018.7
20260502115007 52 286 1.0 6.0 0.00 3.12 0.00 93 1018.5
20260502114523 52 32 1.0 4.0 0.00 3.12 0.00 92 1018.4
20260502114007 52 344 1.0 3.0 0.00 3.12 0.00 92 1018.4
20260502113507 52 247 1.0 3.0 0.00 3.12 0.00 92 1018.6
20260502113033 52 26 0.0 4.0 0.00 3.12 0.00 92 1018.5
20260502112507 53 265 1.0 4.0 0.00 3.12 0.00 92 1018.6
20260502112006 53 13 1.0 8.0 0.00 3.13 0.00 92 1018.5
20260502111524 53 15 2.0 8.0 0.00 3.13 0.00 92 1018.4
20260502111010 53 16 1.0 4.0 0.00 3.13 0.00 92 1018.2
20260502110507 53 61 1.0 6.0 0.00 3.13 0.00 92 1018.2
20260502110029 53 93 1.0 6.0 0.00 3.13 0.00 92 1018.1
20260502105508 53 9 2.0 6.0 0.00 3.14 0.00 92 1018.0
20260502105014 53 65 1.0 5.0 0.00 3.14 0.00 92 1018.0
20260502104529 53 40 2.0 5.0 0.00 3.14 0.00 92 1018.0
20260502104008 53 319 1.0 5.0 0.00 3.14 0.00 91 1017.9
20260502103508 53 67 2.0 5.0 0.00 3.14 0.00 92 1018.0
20260502103026 53 41 1.0 5.0 0.00 3.15 0.00 91 1017.8
20260502102507 53 330 1.0 5.0 0.00 3.15 0.00 91 1017.9
20260502102009 53 93 1.0 5.0 0.00 3.15 0.00 91 1017.7
20260502101530 53 316 2.0 5.0 0.00 3.15 0.00 91 1017.6
20260502101012 53 34 0.0 4.0 0.00 3.16 0.00 91 1017.5
20260502100511 53 332 1.0 4.0 0.00 3.16 0.00 91 1017.5
20260502091522 55 38 1.0 6.0 0.00 3.18 0.00 91 1016.4
20260502091015 55 221 1.0 6.0 0.00 3.18 0.00 91 1016.4
20260502090507 55 86 2.0 9.0 0.00 3.19 0.00 91 1016.3
20260502071522 55 109 2.0 9.0 0.00 3.24 0.00 92 1016.1
20260502071007 55 93 2.0 9.0 0.00 3.24 0.00 92 1016.1
20260502070507 55 312 2.0 5.0 0.00 3.25 0.00 92 1016.1
20260502070026 55 115 2.0 5.0 0.00 3.25 0.00 92 1016.2
20260502065510 55 93 1.0 9.0 0.00 3.25 0.00 92 1016.3
20260502065011 55 93 2.0 9.0 0.00 3.26 0.00 92 1016.3
20260502064531 55 316 2.0 8.0 0.00 3.26 0.00 92 1016.2
20260502064016 56 69 2.0 7.0 0.00 3.26 0.00 93 1016.2
20260502063509 56 287 2.0 7.0 0.00 3.27 0.00 93 1016.4
20260502063024 56 65 2.0 6.0 0.00 3.27 0.00 93 1016.3
20260502062514 56 55 2.0 12.0 0.00 3.27 0.00 93 1016.2
20260502062011 56 9 3.0 12.0 0.00 3.28 0.00 93 1016.1
20260502061525 56 21 2.0 9.0 0.00 3.28 0.00 93 1016.1
20260502061011 56 32 2.0 9.0 0.00 3.28 0.00 93 1016.0
20260502060510 56 16 2.0 9.0 0.00 3.29 0.00 93 1016.0
20260502060028 56 80 1.0 9.0 0.00 3.29 0.00 93 1016.0
20260502055506 56 48 3.0 10.0 0.00 3.29 0.00 93 1016.0
20260502055010 56 65 3.0 12.0 0.00 3.30 0.00 93 1016.0
20260502054526 56 84 3.0 12.0 0.00 3.30 0.00 93 1016.0
20260502054007 56 80 3.0 10.0 0.00 3.31 0.00 94 1016.0
20260502053508 56 71 2.0 9.0 0.00 3.32 0.00 94 1016.0
20260502053027 56 238 2.0 9.0 0.00 3.33 0.00 94 1016.0
20260502052512 56 16 2.0 9.0 0.00 3.34 0.00 94 1016.0
20260502052008 56 92 3.0 9.0 0.00 3.35 0.00 94 1015.9
20260502051522 56 79 3.0 8.0 0.00 3.35 0.00 94 1015.7
20260502051010 56 38 3.0 8.0 0.00 3.36 0.00 94 1015.8
20260502050509 56 83 2.0 9.0 0.00 3.37 0.00 94 1015.9
20260502050027 56 141 1.0 9.0 0.00 3.39 0.00 94 1015.6
20260502045510 56 117 4.0 9.0 0.00 3.41 3.39 94 1015.6
20260502045015 56 63 2.0 10.0 0.00 3.44 3.39 94 1015.4
20260502044528 56 295 2.0 10.0 0.00 3.48 3.39 94 1015.3
20260502044011 56 61 2.0 10.0 0.00 3.58 3.39 94 1015.3
20260502043514 56 330 3.0 8.0 0.00 3.60 3.39 94 1015.4
20260502043023 56 117 3.0 7.0 0.00 3.60 3.39 94 1015.3
20260502042512 56 67 3.0 8.0 0.00 3.60 3.39 94 1015.6
20260502042012 56 137 1.0 8.0 0.00 3.60 3.39 94 1015.8
20260502041529 56 57 3.0 11.0 0.00 3.60 3.39 94 1015.9
20260502041013 56 332 3.0 11.0 0.00 3.60 3.39 94 1015.8
20260502040510 56 221 3.0 11.0 0.00 3.60 3.39 94 1015.5
20260502040026 56 72 2.0 9.0 0.00 3.60 3.39 94 1015.4
20260502035507 56 265 1.0 9.0 0.00 3.60 3.39 95 1015.3
20260502035010 56 99 2.0 9.0 0.00 3.60 3.39 94 1015.3
20260502034526 56 74 2.0 10.0 0.00 3.60 3.39 95 1015.4
20260502034010 56 131 1.0 11.0 0.00 3.60 3.39 94 1015.5
20260502033509 56 80 2.0 11.0 0.01 3.60 3.39 94 1015.5
20260502033025 56 51 1.0 11.0 0.01 3.60 3.39 94 1015.4